Location: Powder Track
(41.8531°N, 72.3584°W)
Time: 05:44:33
(UTC+00:00)

X-37B - Pass Details

Date: 26 June 2021
Orbit: 383 x 392 km, 45.0° (Epoch: 01 July)

Event Time Altitude Azimuth Distance (km) Brightness Sun altitude
Rises 02:20:15 0° 264° (W) 2,253 4.9 -15.9°
Reaches altitude 10° 02:22:21 10° 269° (W) 1,400 3.9 -16.1°
Maximum altitude 02:25:27 55° 349° (N) 468 1.3 -16.5°
Drops below altitude 10° 02:28:33 10° 68° (ENE) 1,402 3.3 -16.8°
Enters shadow 02:28:36 10° 68° (ENE) 1,420 3.3 -16.8°
